FW0960 Weather Reports


time (UTC)temp
F
wind
direction
speed
knots
gust
knots
rain 1hr
in
rain 24hr
in
rain mn
in
humidity
%
barometer
mb
20260904171053 84 180 0.9 2.6 0.00 0.63 0.63 77 1013.3
20260904170551 84 194 0.9 2.6 0.00 0.63 0.63 79 1013.4
20260904170052 84 205 0.9 1.7 0.00 0.63 0.63 78 1013.3
20260904165546 84 205 0.9 3.5 0.00 0.63 0.63 77 1013.4
20260904165055 83 205 1.7 5.2 0.00 0.63 0.63 80 1013.5
20260904164050 83 209 2.6 6.1 0.00 0.63 0.63 79 1013.6
20260904163548 83 210 1.7 6.1 0.00 0.63 0.63 79 1013.7
20260904163046 83 213 2.6 6.1 0.00 0.63 0.63 78 1013.8
20260904162546 83 213 2.6 5.2 0.00 0.63 0.63 78 1013.9
20260904162046 83 215 1.7 6.1 0.00 0.63 0.63 80 1013.9
20260904161618 83 227 1.7 6.1 0.00 0.63 0.63 80 1013.9
20260904160541 82 194 2.6 6.1 0.00 0.63 0.63 79 1014.0
20260904160038 82 182 2.6 5.2 0.00 0.63 0.63 82 1013.9
20260904155539 82 182 2.6 7.0 0.00 0.63 0.63 79 1013.9
20260904154113 81 175 1.7 5.2 0.00 0.63 0.63 82 1013.7
20260904153534 81 198 2.6 7.0 0.00 0.63 0.63 82 1013.8
20260904152034 80 210 2.6 6.1 0.00 0.63 0.63 83 1013.9
20260904151534 80 207 2.6 5.2 0.00 0.63 0.63 83 1013.7
20260904151034 80 146 2.6 8.7 0.00 0.63 0.63 86 1013.8
20260904150539 80 209 2.6 8.7 0.00 0.63 0.63 84 1013.9
20260904145531 79 160 3.5 7.8 0.00 0.63 0.63 87 1013.9
20260904144032 78 211 3.5 7.0 0.00 0.63 0.63 87 1013.9
20260904143535 78 215 3.5 7.0 0.00 0.63 0.63 88 1014.0
20260904142531 77 226 2.6 7.8 0.00 0.63 0.63 90 1013.9
20260904142032 77 173 2.6 7.8 0.00 0.63 0.63 91 1013.9
20260904141532 77 163 2.6 6.1 0.00 0.63 0.63 90 1013.9
20260904141029 77 207 1.7 6.1 0.00 0.63 0.63 92 1013.7
20260904140620 77 205 1.7 5.2 0.00 0.63 0.63 94 1013.7
20260904134031 75 117 1.7 7.8 0.00 0.63 0.63 100 1013.7
20260904133530 75 208 1.7 7.0 0.00 0.63 0.63 100 1013.7
20260904133030 75 208 1.7 7.0 0.00 0.63 0.63 100 1013.6
20260904132535 74 227 1.7 7.0 0.00 0.63 0.63 100 1013.6
20260904131525 74 144 1.7 4.3 0.00 0.63 0.63 100 1013.7
20260904131017 74 146 1.7 4.3 0.00 0.63 0.63 100 1013.6
20260904130520 74 142 0.9 4.3 0.00 0.63 0.63 100 1013.5
20260904125016 74 109 0.9 5.2 0.00 0.63 0.63 100 1013.5
20260904124511 74 111 0.9 3.5 0.00 0.63 0.63 100 1013.6
20260904124012 74 111 0.9 5.2 0.00 0.63 0.63 100 1013.6
20260904123511 73 105 0.9 5.2 0.00 0.63 0.63 100 1013.6
20260904123010 73 107 0.9 2.6 0.00 0.63 0.63 100 1013.6
20260904122509 73 107 0.9 3.5 0.00 0.63 0.63 100 1013.6
20260904122007 73 107 0.9 5.2 0.00 0.63 0.63 100 1013.5
20260904121508 73 105 0.9 7.0 0.00 0.63 0.63 100 1013.5
20260904121014 73 105 0.9 7.0 0.00 0.63 0.63 100 1013.6
20260904120509 73 134 0.9 3.5 0.00 0.63 0.63 100 1013.6
20260904115503 73 134 0.9 5.2 0.00 0.63 0.63 100 1013.4
20260904115006 73 166 0.9 5.2 0.00 0.63 0.63 100 1013.3
20260904114503 73 201 0.9 3.5 0.00 0.63 0.63 100 1013.5
20260904114002 73 133 0.9 3.5 0.00 0.63 0.63 100 1013.6
20260904113502 73 133 0.9 4.3 0.00 0.63 0.63 100 1013.6
20260904112448 73 133 0.0 2.6 0.01 0.63 0.63 100 1013.6
20260904111946 72 133 0.9 2.6 0.01 0.63 0.63 100 1013.4
20260904111445 72 94 0.0 1.7 0.01 0.63 0.63 100 1013.3
20260904110936 72 130 0.0 2.6 0.01 0.63 0.63 100 1013.3
20260904110433 72 110 0.0 2.6 0.01 0.63 0.63 100 1013.2
20260904105932 72 108 0.0 1.7 0.01 0.63 0.63 100 1013.1
20260904105436 72 144 0.0 0.9 0.01 0.63 0.63 100 1013.0
20260904104933 71 146 0.0 0.9 0.01 0.63 0.63 100 1012.8
20260904104435 71 144 0.0 0.9 0.01 0.63 0.63 100 1012.5
20260904103933 71 142 0.0 0.9 0.01 0.63 0.63 100 1012.5
20260904103435 72 145 0.0 0.9 0.01 0.63 0.63 100 1012.4
20260904102437 72 144 0.0 0.9 0.00 0.62 0.62 100 1012.4
20260904101437 72 144 0.0 0.9 0.00 0.62 0.62 100 1012.5
20260904100932 72 144 0.0 0.9 0.00 0.63 0.62 100 1012.5
20260904095430 72 144 0.0 0.9 0.00 0.63 0.62 100 1012.6
20260904094932 72 144 0.0 0.9 0.00 0.63 0.62 100 1012.6
20260904094430 72 144 0.0 0.9 0.00 0.63 0.62 100 1012.7
20260904093927 73 144 0.0 0.9 0.00 0.63 0.62 100 1012.7
20260904093419 73 144 0.0 0.9 0.00 0.63 0.62 100 1012.7
20260904092918 73 144 0.0 0.9 0.01 0.63 0.62 100 1012.7
20260904092418 73 144 0.0 0.9 0.01 0.63 0.62 100 1012.9
20260904091918 73 144 0.0 0.9 0.01 0.63 0.62 100 1013.0
20260904091417 73 144 0.0 0.9 0.01 0.63 0.62 100 1012.7
20260904090410 73 144 0.0 0.0 0.01 0.63 0.62 100 1012.7
20260904085911 73 144 0.0 0.0 0.01 0.63 0.62 100 1012.8
20260904085409 73 144 0.0 0.0 0.01 0.63 0.62 100 1012.9
20260904084909 73 144 0.0 0.0 0.02 0.63 0.62 100 1012.8
20260904084404 73 144 0.0 0.0 0.02 0.63 0.62 100 1012.8
20260904083912 73 144 0.0 0.9 0.02 0.63 0.62 100 1012.8
20260904083404 73 144 0.0 0.9 0.03 0.63 0.62 100 1012.9
20260904082404 73 144 0.0 0.0 0.03 0.63 0.61 100 1013.2
20260904081906 73 144 0.0 0.9 0.04 0.63 0.61 100 1013.2
20260904081408 73 144 0.0 0.9 0.04 0.65 0.61 100 1013.4
20260904080904 73 144 0.0 0.9 0.06 0.65 0.61 100 1013.3
20260904075900 72 144 0.0 0.9 0.09 0.65 0.61 99 1013.5
20260904075348 72 144 0.0 0.9 0.11 0.65 0.61 99 1013.4
20260904074848 73 144 0.0 0.9 0.11 0.64 0.60 99 1013.5
20260904074353 73 144 0.0 0.0 0.11 0.64 0.60 99 1013.6
20260904073854 73 144 0.0 0.9 0.12 0.64 0.60 99 1013.5
20260904072850 73 144 0.0 0.9 0.12 0.63 0.59 99 1013.5
20260904071901 73 144 0.0 0.0 0.12 0.61 0.57 98 1013.6
20260904070851 73 144 0.0 0.0 0.14 0.59 0.55 98 1013.6
20260904070344 73 144 0.0 0.9 0.14 0.57 0.53 98 1014.0
20260904065844 73 144 0.0 2.6 0.21 0.56 0.51 98 1013.9
20260904065353 73 144 0.0 2.6 0.41 0.54 0.50 98 1014.0
20260904064845 73 144 0.0 1.7 0.49 0.53 0.49 98 1014.2
20260904064347 73 144 0.0 1.7 0.49 0.53 0.48 98 1014.4
20260904063858 73 144 0.0 0.9 0.48 0.52 0.48 98 1014.4
20260904063343 73 144 0.0 2.6 0.47 0.51 0.47 97 1014.4
20260904062842 73 144 0.0 2.6 0.47 0.51 0.47 97 1014.5
20260904062344 73 150 0.0 1.7 0.46 0.50 0.45 97 1014.9
20260904061849 73 112 0.9 3.5 0.45 0.49 0.44 97 1015.2
20260904061342 73 148 0.9 3.5 0.43 0.47 0.43 97 1015.7
20260904060844 73 54 0.9 4.3 0.41 0.45 0.41 97 1015.9
20260904060344 74 190 1.7 10.4 0.39 0.43 0.38 97 1015.7
20260904055842 74 215 1.7 10.4 0.31 0.35 0.30 95 1015.5
20260904055345 76 27 1.7 14.8 0.09 0.13 0.07 93 1015.5
20260904054844 78 148 1.7 14.8 0.00 0.04 0.00 91 1015.5
20260904054503 79 157 0.9 14.8 0.00 0.04 0.00 99 1014.3
20260904053345 79 167 0.0 0.0 0.00 0.04 0.00 99 1013.0
20260904052843 79 167 0.0 0.0 0.00 0.04 0.00 99 1012.9
20260904052345 78 167 0.0 0.0 0.00 0.04 0.00 99 1012.8
20260904051843 78 167 0.0 0.0 0.00 0.04 0.00 99 1012.8
20260904051344 78 167 0.0 0.0 0.00 0.04 0.00 98 1012.9
20260904050841 78 167 0.0 0.0 0.00 0.04 0.00 98 1013.0
20260904050344 78 168 0.0 0.0 0.00 0.04 0.00 98 1013.1
20260904045837 78 167 0.0 0.0 0.00 0.04 0.00 98 1013.2
20260904045336 78 167 0.0 0.0 0.00 0.04 0.00 98 1013.3
20260904044840 78 167 0.0 0.0 0.00 0.04 0.00 98 1013.5
20260904044341 78 167 0.0 0.0 0.00 0.04 0.00 98 1013.5
20260904043837 78 167 0.0 0.0 0.00 0.04 0.00 98 1013.3
20260904043331 78 168 0.0 0.0 0.00 0.04 0.00 98 1013.4
20260904042842 78 168 0.0 0.0 0.00 0.04 0.00 97 1013.2
20260904041834 78 167 0.0 0.0 0.00 0.04 0.00 97 1013.2
20260904041332 78 167 0.0 0.0 0.00 0.04 0.00 97 1013.2
20260904040833 78 167 0.0 0.0 0.00 0.04 0.00 97 1013.3
20260904040330 79 167 0.0 0.0 0.00 0.04 0.00 97 1013.4
20260904035830 79 167 0.0 0.0 0.00 0.04 0.04 97 1013.5
20260904035334 79 167 0.0 0.0 0.00 0.04 0.04 97 1013.6
20260904034331 79 167 0.0 0.0 0.00 0.04 0.04 97 1013.9
20260904033833 79 167 0.0 0.0 0.00 0.04 0.04 97 1014.0
20260904032832 79 167 0.0 0.0 0.00 0.04 0.04 97 1014.0
20260904031834 79 167 0.0 0.0 0.00 0.04 0.04 96 1014.0
20260904030830 79 167 0.0 0.0 0.00 0.04 0.04 96 1014.1
20260904030332 79 167 0.0 0.0 0.00 0.04 0.04 96 1014.0
20260904025830 79 167 0.0 0.0 0.00 0.04 0.04 96 1014.0
20260904024832 79 167 0.0 0.0 0.00 0.04 0.04 95 1014.0
20260904024330 79 167 0.0 0.0 0.00 0.04 0.04 95 1014.0
20260904023831 79 167 0.0 0.0 0.00 0.04 0.04 95 1014.0
20260904023333 80 167 0.0 0.0 0.00 0.04 0.04 95 1014.0
20260904022831 80 168 0.0 0.0 0.00 0.04 0.04 95 1013.9
20260904022332 80 168 0.0 0.0 0.00 0.04 0.04 95 1014.0
20260904021833 80 167 0.0 0.0 0.00 0.04 0.04 95 1014.0
20260904021330 80 168 0.0 0.0 0.00 0.04 0.04 95 1014.1
20260904015834 80 168 0.0 0.0 0.00 0.04 0.04 94 1014.2
20260904015337 80 168 0.0 0.0 0.00 0.04 0.04 94 1014.4
20260904014332 80 168 0.0 0.0 0.00 0.04 0.04 94 1014.5
20260904013832 80 168 0.0 0.0 0.00 0.04 0.04 93 1014.6
20260904012320 80 167 0.0 0.0 0.00 0.04 0.04 93 1014.8
20260904011819 81 168 0.0 0.0 0.00 0.04 0.04 93 1014.8
20260904011320 81 168 0.0 0.0 0.00 0.04 0.04 92 1014.8
20260904010816 81 168 0.0 0.0 0.00 0.04 0.04 92 1014.8
20260904010314 81 168 0.0 0.0 0.00 0.04 0.04 91 1014.8
20260904005315 82 168 0.0 0.0 0.00 0.04 0.04 91 1014.8
20260904004812 82 167 0.0 0.0 0.00 0.04 0.04 90 1014.7
20260904004313 82 167 0.0 0.0 0.00 0.04 0.04 90 1014.6
20260904003812 82 167 0.0 0.0 0.00 0.04 0.04 90 1014.6
20260904003308 82 168 0.0 0.0 0.00 0.04 0.04 90 1014.4
20260904002818 82 168 0.0 0.0 0.00 0.04 0.04 89 1014.5
20260904002310 82 167 0.0 0.0 0.00 0.04 0.04 89 1014.6
20260904001807 83 168 0.0 0.0 0.00 0.04 0.04 89 1014.5
20260904001306 83 167 0.0 0.0 0.00 0.04 0.04 89 1014.3
20260904000809 83 168 0.0 0.0 0.00 0.04 0.04 88 1014.2
20260904000307 83 167 0.0 0.0 0.00 0.04 0.04 88 1014.0
20260903235805 83 167 0.0 0.0 0.00 0.04 0.04 87 1014.0
20260903235305 83 167 0.0 0.0 0.00 0.04 0.04 87 1013.8
20260903234800 84 167 0.0 0.0 0.00 0.04 0.04 87 1013.7
20260903234258 84 167 0.0 0.0 0.00 0.04 0.04 87 1013.9
20260903232756 84 167 0.0 0.0 0.00 0.04 0.04 86 1014.0
20260903232253 85 167 0.0 0.0 0.00 0.04 0.04 86 1013.8
20260903231255 85 167 0.0 0.0 0.00 0.04 0.04 85 1013.9
20260903230748 85 167 0.0 0.9 0.00 0.04 0.04 84 1014.0
20260903230249 85 168 0.0 0.9 0.00 0.04 0.04 84 1013.8
20260903225248 86 168 0.0 0.0 0.00 0.04 0.04 83 1013.6
20260903224749 86 167 0.0 0.0 0.00 0.04 0.04 83 1013.8
20260903224247 86 167 0.0 0.9 0.00 0.04 0.04 82 1013.7
20260903223748 86 167 0.0 0.9 0.00 0.04 0.04 81 1013.7
20260903223245 87 161 0.0 0.9 0.00 0.04 0.04 81 1013.8
20260903222802 87 161 0.0 0.9 0.00 0.04 0.04 80 1013.7
20260903222243 87 157 0.0 0.9 0.00 0.04 0.04 79 1013.7
20260903221746 87 157 0.0 0.9 0.00 0.04 0.04 78 1013.8
20260903221247 87 179 0.0 1.7 0.00 0.04 0.04 77 1013.7
20260903220740 87 180 0.0 1.7 0.00 0.04 0.04 77 1013.9
20260903215739 87 189 0.0 1.7 0.00 0.04 0.04 77 1013.9
20260903214743 87 154 0.9 1.7 0.00 0.04 0.04 78 1013.6
20260903214248 87 159 0.9 3.5 0.00 0.04 0.04 77 1013.9
20260903213749 87 182 0.9 3.5 0.00 0.04 0.04 78 1013.9
20260903213241 87 178 0.9 3.5 0.00 0.04 0.04 76 1013.8
20260903212745 87 153 0.9 4.3 0.00 0.04 0.04 76 1013.9
20260903212235 88 178 0.9 4.3 0.00 0.04 0.04 76 1013.8
20260903211235 88 180 0.9 3.5 0.00 0.04 0.04 77 1014.0
20260903210736 88 123 0.9 3.5 0.00 0.04 0.04 78 1014.0
20260903210234 88 245 0.9 3.5 0.00 0.04 0.04 78 1014.0
20260903205732 88 167 0.9 3.5 0.00 0.04 0.04 79 1014.1
20260903204231 88 136 0.9 4.3 0.00 0.04 0.04 80 1014.3
20260903203729 88 156 0.9 3.5 0.00 0.04 0.04 81 1014.2
20260903203233 87 178 0.9 5.2 0.00 0.04 0.04 79 1014.4
20260903202731 88 157 0.9 5.2 0.00 0.04 0.04 79 1014.3
20260903202230 87 162 0.9 2.6 0.00 0.04 0.04 79 1014.4
20260903201731 87 172 0.9 2.6 0.00 0.04 0.04 80 1014.4
20260903200231 87 150 0.9 2.6 0.00 0.04 0.04 80 1014.5
20260903195739 87 165 0.0 1.7 0.00 0.04 0.04 82 1014.6
20260903194731 87 126 0.9 2.6 0.00 0.04 0.04 80 1014.7
20260903194233 87 166 0.9 2.6 0.00 0.04 0.04 81 1014.7
20260903193731 86 188 0.9 2.6 0.00 0.04 0.04 82 1014.7
20260903193229 86 99 0.9 1.7 0.00 0.04 0.04 83 1014.9
20260903192729 86 168 0.9 1.7 0.00 0.04 0.04 83 1014.9
20260903192232 86 185 0.9 2.6 0.00 0.04 0.04 82 1014.9
20260903191732 86 132 0.9 2.6 0.00 0.04 0.04 82 1014.9
20260903191230 86 146 0.9 1.7 0.00 0.04 0.04 83 1015.0
20260903190734 86 145 0.9 2.6 0.00 0.04 0.04 83 1015.0
20260903190228 85 138 0.9 2.6 0.00 0.04 0.04 83 1015.1
20260903185733 85 144 0.9 2.6 0.00 0.04 0.04 85 1015.1
20260903185231 85 134 0.9 2.6 0.00 0.04 0.04 85 1015.1
20260903183733 84 163 0.9 4.3 0.00 0.04 0.04 85 1015.3
20260903183233 85 163 0.9 4.3 0.00 0.04 0.04 84 1015.5
20260903182738 85 185 0.9 3.5 0.00 0.04 0.04 86 1015.5
20260903182257 84 164 0.9 3.5 0.00 0.04 0.04 85 1015.8
20260903181230 84 186 0.9 5.2 0.00 0.04 0.04 84 1015.9
20260903180738 84 136 0.9 5.2 0.00 0.04 0.04 85 1015.8
20260903175730 85 144 0.9 3.5 0.00 0.04 0.04 86 1015.7
20260903175230 85 186 0.9 4.3 0.00 0.04 0.04 85 1015.6
20260903174736 85 115 0.9 4.3 0.00 0.04 0.04 84 1015.9
20260903174229 85 157 0.9 5.2 0.00 0.04 0.04 86 1015.9
20260903173237 85 125 0.9 3.5 0.00 0.04 0.04 84 1016.1
20260903172733 85 118 0.9 3.5 0.00 0.04 0.04 84 1016.0
20260903171735 84 182 0.9 2.6 0.00 0.04 0.04 86 1016.2
20260903171334 84 185 0.9 2.6 0.00 0.04 0.04 85 1016.1